Observations for Trim Market St
| Time | AQI | Temp °C | Hum % | Pres Pa | CO μg/m³ | H₂S μg/m³ | NO μg/m³ | NO₂ μg/m³ | O₃ μg/m³ | SO₂ μg/m³ | PM1 μg/m³ | PM2.5 μg/m³ | PM10 μg/m³ |
|---|---|---|---|---|---|---|---|---|---|---|---|---|---|
| Wednesday 12 August 2026 | |||||||||||||
| 03:47 | 2 | 19.3 | 66 | 57,197 | 0.06 | 0 | 1.28 | 12.35 | 64.93 | 0 | 1.43 | 3.75 | 5.57 |
| 03:46 | 2 | 19.2 | 66 | 57,205 | 0.06 | 0 | 1.3 | 15.84 | 61.21 | 0 | 2.14 | 4.25 | 6.22 |
| 03:45 | 2 | 19.3 | 66 | 57,216 | 0.05 | 0 | 1.26 | 16.85 | 59.49 | 0 | 2.14 | 4.25 | 6.22 |
| 03:44 | 2 | 19.3 | 66 | 57,223 | 0.06 | 0 | 1.26 | 13.36 | 66.12 | 0 | 2.85 | 3.76 | 6.88 |
| 03:43 | 2 | 19.3 | 66 | 57,231 | 0.05 | 0 | 1.26 | 12.02 | 70.67 | 0 | 2.14 | 3.27 | 5.57 |
| 03:41 | 2 | 19.3 | 65 | 57,241 | 0.06 | 0 | 1.26 | 12.66 | 58.7 | 0 | 1.43 | 3.27 | 4.91 |
| 03:40 | 2 | 19.3 | 65 | 57,249 | 0.05 | 0 | 1.26 | 32.5 | 58.02 | 0 | 2.14 | 4.26 | 6.88 |
| 03:38 | 2 | 19.3 | 65 | 57,264 | 0.06 | 0 | 1.27 | 16.91 | 61.87 | 0 | 2.14 | 4.27 | 6.22 |
| 03:37 | 2 | 19.3 | 65 | 57,275 | 0.04 | 0 | 1.26 | 17.95 | 60.59 | 0 | 0 | 2.79 | 4.25 |
| 03:36 | 2 | 19.3 | 65 | 57,284 | 0.04 | 0 | 1.26 | 13.26 | 65.32 | 0 | 2.14 | 4.76 | 7.53 |
| 03:35 | 2 | 19.3 | 65 | 57,292 | 0.05 | 0 | 1.31 | 14.04 | 64.11 | 0 | 2.14 | 4.27 | 6.22 |
| 03:34 | 2 | 19.3 | 65 | 57,303 | 0.05 | 0 | 1.32 | 14.32 | 61.05 | 0 | 2.14 | 4.27 | 7.53 |
| 03:33 | 2 | 19.3 | 65 | 57,307 | 0.04 | 0 | 1.3 | 17.63 | 59.49 | 0 | 2.85 | 4.27 | 6.22 |
| 03:32 | 2 | 19.3 | 65 | 57,315 | 0.05 | 0 | 1.33 | 13.64 | 63.41 | 0 | 1.43 | 4.27 | 6.22 |
| 03:30 | 2 | 19.3 | 65 | 57,338 | 0.05 | 0 | 1.3 | 13.5 | 68.12 | 0 | 2.14 | 4.27 | 7.53 |
| 03:26 | 2 | 19.3 | 65 | 57,388 | 0.05 | 0 | 1.27 | 17.98 | 60.4 | 0 | 1.43 | 3.3 | 6.21 |
| 03:25 | 2 | 19.3 | 65 | 57,393 | 0.04 | 0 | 1.25 | 12.5 | 66.27 | 0 | 2.14 | 3.3 | 4.9 |
| 03:23 | 2 | 19.3 | 65 | 57,403 | 0.05 | 0 | 1.25 | 12.16 | 59.18 | 0 | 1.43 | 3.8 | 5.55 |
| 03:17 | 2 | 19.3 | 64 | 57,430 | 0.05 | 0 | 1.27 | 11.82 | 62.17 | 0 | 1.43 | 4.3 | 6.87 |
| 03:10 | 2 | 19.4 | 64 | 57,441 | 0.04 | 0 | 1.25 | 12.09 | 67.85 | 0 | 1.43 | 3.32 | 4.89 |